User: anonymous   Login
Location: Unspecified
(0.0000°N, 0.0000°E)
Time: 03:02:02
(UTC+00:00)
Language:

USA 136 - Orbit

View from above orbital plane
View from above orbital plane
View from above satellite
View from above satellite

Ground track
Ground track

The orbit data is extracted from the following two-line orbital elements,

1 25034U 97068A   18295.52437303 0.00000000  00000-0  00000-0 0    09
2 25034  63.4444 182.1835 6069176 283.4725  19.0741  2.00571359    09
Epoch (UTC): 22 October 2018 12:35:05
Eccentricity: 0.6069176
inclination: 63.4444°
perigee height: 4062 km
apogee height: 36300 km
right ascension of ascending node: 182.1835°
argument of perigee: 283.4725°
revolutions per day: 2.00571359
mean anomaly at epoch: 19.0741°
orbit number at epoch: 0

The dashed part of the orbit path shows where the satellite is in the earth's shadow,  

DLR